Location: Taupo
(38.6830°S, 176.0830°E)
Time: 10:12:57
(UTC+13:00)

Cosmos 1805 Rocket - Pass Details

Date: 24 January 2019
Orbit: 607 x 629 km, 82.5° (Epoch: 18 February)

Event Time Altitude Azimuth Distance (km) Brightness Sun altitude
Rises 21:11:21 0° 192° (SSW) 2,908 7.7 -6.7°
Reaches altitude 10° 21:13:37 10° 195° (SSW) 1,993 6.9 -7.0°
Maximum altitude 21:17:57 61° 274° (W) 702 4.1 -7.8°
Drops below altitude 10° 21:22:15 10° 354° (N) 1,962 5.9 -8.5°
Sets 21:24:28 0° 357° (N) 2,858 6.7 -8.8°
